Date String (YYYY-MM-DD hh:mm:ss) UTC,Instrument flags,Ambient pressure (hPa),Sample flow (lpm),Bypass flow (lpm),Sample temperature (°C),Ambient temperature (°C),ASC tube jacket temperature (°C),LED temperature (°C),Box temperature (°C),Sample RH (%),Span deviation,Mass concentration (μg/m³),Mass concentration (μg/m³),Mass concentration (μg/m³)
DateTimeUTC,F1_M11,P_M11,Q1_M11,Q2_M11,T1_M11,T2_M11,T3_M11,T4_M11,T5_M11,U1_M11,ZSPAN_M11,X0_M11,X2_M11,X1_M11
2022-06-27 22:00:00,,0831.9,5.00,0.00,29.1,27.8,00.0,37.8,31.1,18.3,0000.0,0011.25,0004.58,0003.86
2022-06-27 22:01:00,,0832.0,4.99,0.00,29.1,28.0,00.0,37.8,31.1,17.8,0000.0,0011.42,0004.64,0003.90
2022-06-27 22:02:00,,0832.0,5.00,0.00,29.2,28.2,00.0,37.8,31.2,18.1,0000.0,0011.28,0004.70,0003.94
2022-06-27 22:03:00,,0832.0,4.99,0.00,29.2,28.3,00.0,37.9,31.3,18.1,0000.0,0011.31,0004.77,0003.99
2022-06-27 22:04:00,,0832.0,5.00,0.00,29.3,28.4,00.0,37.9,31.3,18.1,0000.0,0011.29,0004.81,0004.04
2022-06-27 22:05:00,,0831.9,5.00,0.00,29.3,27.9,00.0,37.9,31.2,18.0,0000.0,0011.53,0004.84,0004.09
2022-06-27 22:06:00,,0832.0,5.00,0.00,29.2,27.3,00.0,37.8,30.9,18.1,0000.0,0011.13,0004.85,0004.11
2022-06-27 22:07:00,,0831.9,5.00,0.00,29.1,27.1,00.0,37.8,30.9,18.0,0000.0,0011.18,0004.87,0004.12
2022-06-27 22:08:00,,0832.0,5.00,0.00,29.1,27.2,00.0,37.8,30.9,18.3,0000.0,0011.48,0004.91,0004.13
2022-06-27 22:09:00,,0832.0,5.00,0.00,29.1,27.3,00.0,37.8,30.9,18.4,0000.0,0012.44,0004.96,0004.15
2022-06-27 22:10:00,,0832.0,4.99,0.00,29.1,27.5,00.0,37.8,30.9,18.2,0000.0,0013.57,0005.01,0004.16
2022-06-27 22:11:00,,0831.9,5.00,0.00,29.1,27.7,00.0,37.8,31.0,18.2,0000.0,0014.53,0005.04,0004.17
2022-06-27 22:12:00,,0832.0,5.01,0.00,29.1,27.8,00.0,37.8,31.1,18.3,0000.0,0014.10,0005.03,0004.17
2022-06-27 22:13:00,,0832.0,4.99,0.00,29.1,28.0,00.0,37.8,31.2,17.9,0000.0,0014.82,0005.04,0004.18
2022-06-27 22:14:00,,0832.0,5.00,0.00,29.2,28.2,00.0,37.9,31.2,17.8,0000.0,0014.92,0005.00,0004.18
2022-06-27 22:15:00,,0832.0,5.00,0.00,29.2,28.3,00.0,37.9,31.3,17.8,0000.0,0015.37,0005.00,0004.18
2022-06-27 22:16:00,,0832.0,5.00,0.00,29.3,28.3,00.0,37.9,31.3,17.7,0000.0,0015.14,0005.03,0004.18
2022-06-27 22:17:00,,0832.0,5.00,0.00,29.2,27.6,00.0,37.9,31.1,18.1,0000.0,0014.86,0005.02,0004.17
2022-06-27 22:18:00,,0832.0,5.01,0.00,29.1,27.0,00.0,37.8,30.9,18.3,0000.0,0014.91,0005.01,0004.17
2022-06-27 22:19:00,,0832.0,5.00,0.00,29.1,27.0,00.0,37.8,30.9,18.3,0000.0,0015.61,0004.98,0004.17
2022-06-27 22:20:00,,0832.0,5.00,0.00,29.1,27.1,00.0,37.8,30.9,18.4,0000.0,0015.05,0004.96,0004.17
2022-06-27 22:21:00,,0832.0,5.01,0.00,29.0,27.2,00.0,37.8,30.9,18.7,0000.0,0014.23,0004.99,0004.16
2022-06-27 22:22:00,,0831.9,5.00,0.00,29.1,27.4,00.0,37.8,30.9,18.3,0000.0,0012.30,0004.97,0004.16
2022-06-27 22:23:00,,0831.9,5.00,0.00,29.1,27.6,00.0,37.8,31.0,18.1,0000.0,0012.12,0004.95,0004.17
2022-06-27 22:24:00,,0831.9,5.01,0.00,29.1,27.8,00.0,37.8,31.1,18.3,0000.0,0011.34,0004.96,0004.17
2022-06-27 22:25:00,,0831.9,4.99,0.00,29.1,28.0,00.0,37.8,31.2,17.9,0000.0,0011.23,0004.96,0004.17
2022-06-27 22:26:00,,0831.9,5.00,0.00,29.2,28.2,00.0,37.9,31.2,18.1,0000.0,0011.37,0004.95,0004.17
2022-06-27 22:27:00,,0831.8,5.00,0.00,29.2,28.3,00.0,37.9,31.3,18.3,0000.0,0011.19,0004.94,0004.17
2022-06-27 22:28:00,,0831.8,4.99,0.00,29.3,28.4,00.0,37.9,31.3,18.3,0000.0,0011.05,0004.94,0004.17
2022-06-27 22:29:00,,0831.8,5.01,0.00,29.3,27.9,00.0,37.9,31.2,18.5,0000.0,0011.85,0004.95,0004.17
2022-06-27 22:30:00,,0831.8,5.00,0.00,29.2,27.2,00.0,37.8,31.0,19.1,0000.0,0011.39,0004.97,0004.17
2022-06-27 22:31:00,,0831.7,5.02,0.00,29.1,27.0,00.0,37.8,30.9,18.8,0000.0,0011.68,0004.96,0004.16
2022-06-27 22:32:00,,0831.8,5.00,0.00,29.1,27.1,00.0,37.8,30.9,18.7,0000.0,0011.92,0004.95,0004.15
2022-06-27 22:33:00,,0831.8,5.00,0.00,29.1,27.2,00.0,37.8,30.9,19.0,0000.0,0012.18,0004.97,0004.14
2022-06-27 22:34:00,,0831.8,5.01,0.00,29.1,27.4,00.0,37.8,31.0,18.9,0000.0,0013.45,0005.01,0004.12
2022-06-27 22:35:00,,0831.8,5.00,0.00,29.1,27.6,00.0,37.8,31.0,19.2,0000.0,0014.02,0005.00,0004.09
2022-06-27 22:36:00,,0831.8,5.00,0.00,29.1,27.8,00.0,37.8,31.1,19.2,0000.0,0014.63,0005.03,0004.08
2022-06-27 22:37:00,,0831.8,5.00,0.00,29.1,28.0,00.0,37.9,31.1,19.1,0000.0,0015.07,0005.05,0004.07
2022-06-27 22:38:00,,0831.8,5.01,0.00,29.2,28.1,00.0,37.9,31.2,19.5,0000.0,0015.73,0005.08,0004.05
2022-06-27 22:39:00,,0831.9,4.99,0.00,29.2,28.3,00.0,37.9,31.3,19.8,0000.0,0016.44,0005.08,0004.03
2022-06-27 22:40:00,,0831.9,5.01,0.00,29.3,28.3,00.0,37.9,31.3,20.0,0000.0,0016.01,0005.08,0004.02
2022-06-27 22:41:00,,0831.9,5.01,0.00,29.2,27.6,00.0,37.9,31.1,19.7,0000.0,0016.07,0005.08,0004.02
2022-06-27 22:42:00,,0831.9,5.00,0.00,29.2,27.1,00.0,37.8,30.9,19.3,0000.0,0016.14,0005.08,0004.03
2022-06-27 22:43:00,,0831.9,5.01,0.00,29.1,27.0,00.0,37.8,30.9,18.7,0000.0,0016.50,0005.04,0004.01
2022-06-27 22:44:00,,0831.9,5.01,0.00,29.1,27.1,00.0,37.8,30.9,18.7,0000.0,0017.24,0005.00,0003.99
2022-06-27 22:45:00,,0831.9,4.99,0.00,29.1,27.3,00.0,37.8,30.9,18.6,0000.0,0016.37,0005.00,0003.99
2022-06-27 22:46:00,,0831.9,5.00,0.00,29.1,27.4,00.0,37.8,31.0,18.4,0000.0,0016.47,0004.99,0004.01
2022-06-27 22:47:00,,0831.9,5.00,0.00,29.1,27.6,00.0,37.8,31.0,18.5,0000.0,0016.16,0004.99,0004.01
2022-06-27 22:48:00,,0831.9,5.01,0.00,29.1,27.8,00.0,37.8,31.1,18.6,0000.0,0016.83,0004.93,0004.01
2022-06-27 22:49:00,,0831.9,5.00,0.00,29.1,28.0,00.0,37.9,31.2,18.5,0000.0,0016.49,0004.89,0004.00
2022-06-27 22:50:00,,0831.9,5.00,0.00,29.2,28.2,00.0,37.9,31.2,18.5,0000.0,0016.32,0004.87,0004.00
2022-06-27 22:51:00,,0831.9,5.01,0.00,29.2,28.3,00.0,37.9,31.3,18.5,0000.0,0016.36,0004.87,0004.00
2022-06-27 22:52:00,,0832.0,5.00,0.00,29.3,28.4,00.0,37.9,31.3,18.7,0000.0,0016.68,0004.87,0004.00
2022-06-27 22:53:00,,0831.9,4.99,0.00,29.3,27.9,00.0,37.9,31.2,18.3,0000.0,0017.14,0004.85,0004.01
2022-06-27 22:54:00,,0831.9,5.00,0.00,29.2,27.1,00.0,37.8,31.0,18.3,0000.0,0017.00,0004.84,0004.02
2022-06-27 22:55:00,,0832.0,5.01,0.00,29.1,27.0,00.0,37.8,30.9,18.4,0000.0,0016.86,0004.88,0004.02
2022-06-27 22:56:00,,0832.0,5.00,0.00,29.1,27.0,00.0,37.8,30.9,18.5,0000.0,0017.18,0004.88,0004.02
2022-06-27 22:57:00,,0832.0,5.00,0.00,29.1,27.2,00.0,37.8,30.9,18.4,0000.0,0016.70,0004.84,0004.00
2022-06-27 22:58:00,,0832.0,5.00,0.00,29.1,27.4,00.0,37.8,31.0,18.4,0000.0,0017.52,0004.82,0004.00
2022-06-27 22:59:00,,0832.0,5.00,0.00,29.1,27.6,00.0,37.8,31.0,18.2,0000.0,0016.51,0004.86,0004.01
